Home   Weather   Aalborg   Past weeks
Flag for Denmark

Past Weather in Aalborg, Denmark — Yesterday and Last 2 Weeks

Now
43 °F

Quite cool.


Feels Like: 43 °F
Forecast: 54 / 49 °F
Wind: 2 mph from South

Location: Aalborg Airport

Current Time: Oct 18, 2019 at 3:44:53 am

Latest Report: Oct 18, 2019 at 2:50 am


Visibility: N/A

Pressure: 29.77 "Hg

Humidity: 100%

Dew Point: 43 °F

Location of AalborgLocation

Past Weather in Aalborg — Graph

°F

Aalborg Temperature Yesterday

Maximum temperature yesterday: 57 °F (at 2:20 pm)
Minimum temperature yesterday: 48 °F (at 1:50 am)
Average temperature yesterday: 52 °F

High & Low Weather Summary for the Past Weeks

 TemperatureHumidityPressure
High59 °F (Oct 8, 1:50 pm)100% (Oct 8, 8:27 am)30.27 "Hg (Oct 8, 8:27 am)
Low27 °F (Oct 7, 7:20 am)53% (Oct 5, 1:20 pm)29.36 "Hg (Oct 11, 7:50 pm)
Average49 °F88%29.75 "Hg
* Reported Oct 3 2:20 am — Oct 18 2:20 am, Aalborg. Weather by CustomWeather, © 2019

Note: Actual official high and low records may vary slightly from our data, if they occured in-between our weather recording intervals... More about our weather records

Advertising

Aalborg Weather History for the Previous 24 Hours

Scroll right to see more
 ConditionsComfort  
Time TempWeatherWind HumidityBarometerVisibility
2:20 am
Fri, Oct 18
43 °FPassing clouds.5 mph100%29.77 "HgN/A
1:50 am43 °FQuite cool.6 mph100%29.77 "HgN/A
1:20 am45 °FQuite cool.1 mph100%29.77 "HgN/A
12:50 am45 °FQuite cool.2 mph100%29.77 "HgN/A
12:20 am46 °FCool.6 mph93%29.77 "HgN/A
11:50 pm
Thu, Oct 17
48 °FPassing clouds.7 mph94%29.77 "HgN/A
11:20 pm50 °FPassing clouds.8 mph94%29.77 "HgN/A
10:50 pm50 °FPassing clouds.9 mph94%29.77 "HgN/A
10:20 pm52 °FPassing clouds.12 mph88%29.77 "HgN/A
9:50 pm52 °FOvercast.8 mph88%29.77 "HgN/A
9:20 pm52 °FPassing clouds.9 mph88%29.77 "HgN/A
8:50 pm52 °FOvercast.8 mph88%29.77 "HgN/A
8:20 pm52 °FPassing clouds.8 mph88%29.74 "HgN/A
7:50 pm54 °FPassing clouds.7 mph82%29.74 "HgN/A
7:20 pm54 °FPartly cloudy.7 mph82%29.74 "HgN/A
6:50 pm54 °FOvercast.8 mph82%29.74 "HgN/A
6:20 pm54 °FPassing clouds.7 mph82%29.74 "HgN/A
4:50 pm55 °FSunny.8 mph82%29.74 "Hg10 mi
4:20 pm55 °FPassing clouds.10 mph82%29.71 "HgN/A
3:50 pm57 °FPartly sunny.13 mph82%29.71 "HgN/A
3:20 pm57 °FPartly sunny.9 mph88%29.71 "HgN/A
2:50 pm57 °FMostly cloudy.9 mph88%29.71 "HgN/A
2:20 pm57 °FPartly sunny.8 mph94%29.71 "HgN/A
1:50 pm55 °FMostly cloudy.8 mph94%29.71 "HgN/A
1:20 pm55 °FLight rain. Partly sunny.12 mph94%29.68 "HgN/A
12:50 pm55 °FLight rain. Broken clouds.7 mph100%29.68 "HgN/A
12:20 pm54 °FRain. Broken clouds.7 mph100%29.68 "Hg4 mi
11:50 am54 °FRain. Fog.9 mph100%29.68 "Hg3 mi
11:20 am54 °FLight rain. Fog.9 mph100%29.68 "Hg2 mi
10:50 am54 °FLight rain. Fog.13 mph100%29.68 "Hg2 mi
10:20 am54 °FLight rain. Fog.14 mph100%29.68 "Hg2 mi
9:50 am52 °FLight rain. Fog.12 mph100%29.68 "Hg2 mi
9:20 am52 °FRain. Fog.13 mph100%29.68 "Hg2 mi
9:08 am50 °FRain. Fog.12 mph100%29.68 "Hg2 mi
8:31 am50 °FLight rain. Fog.8 mph100%29.68 "Hg1 mi
8:16 am48 °FLight rain. Fog.8 mph100%29.68 "Hg1 mi
7:50 am48 °FFog.10 mph100%29.68 "Hg1 mi
7:20 am48 °FFog.9 mph100%29.68 "Hg1 mi
6:50 am48 °FFog.7 mph100%29.68 "Hg1 mi
6:10 am48 °FFog.7 mph100%29.68 "Hg0 mi
5:50 am48 °FFog.7 mph100%29.68 "Hg0 mi
5:20 am48 °FFog.6 mph100%29.68 "Hg0 mi
4:50 am48 °FFog.6 mph100%29.71 "Hg0 mi
4:33 am48 °FFog.6 mph100%29.71 "Hg0 mi
3:56 am48 °FFog.3 mph100%29.71 "Hg0 mi
3:50 am48 °FFog.3 mph100%29.71 "Hg0 mi
3:20 am48 °FFog.5 mph100%29.71 "Hg0 mi
3:04 am48 °FFog.7 mph100%29.71 "Hg0 mi
Weather by CustomWeather, © 2019

See weather overview